Regional Weather Roundup
Issued by NWS

Home | Current Version | Previous Version | Text Only | Print | Product List | Glossary On
Versions: 1 2 3 4 5 6 7 8 9 10 11 12 13 14 15 16 17 18 19 20 21 22 23 24 25 26 27 28 29 30 31 32 33 34 35 36 37 38 39 40 41 42 43 44 45 46 47 48 49 50
000
ASUS43 KDMX 210701
RWRIA

WEATHER ROUNDUP FOR IOWA
NATIONAL WEATHER SERVICE DES MOINES IA
200 AM CDT THU SEP 21 2017

NOTE: "FAIR" INDICATES FEW OR NO CLOUDS BELOW 12,000 FEET WITH NO
SIGNIFICANT WEATHER AND/OR OBSTRUCTIONS TO VISIBILITY.

* - THESE STATIONS ARE NOT NWS STATIONS...THUS NOT UNDER NWS
QUALITY CONTROL.  THEY ALSO DO NOT REPORT WEATHER SUCH
AS PRECIPITATION OR FOG.

IAZ001>003-012>014-020>022-031>034-043>046-210800-
   NORTHWEST IOWA

CITY           SKY/WX    TMP DP  RH WIND       PRES   REMARKS
CARROLL *      MOCLDY    55  54  94 CALM      29.94R
CHEROKEE *     CLEAR     50  50 100 CALM      29.95S
DENISON *      CLEAR     57  54  88 NE6       29.95R
LE MARS *      CLEAR     50  50 100 N5        29.93S
ORANGE CITY *  CLEAR     55  50  82 E6        29.94S
SHELDON *      CLEAR     48  46  93 E5        29.93S
SIOUX CITY     CLEAR     50  49  96 E3        29.91S
SPENCER        CLEAR     50  47  89 E6        29.97R
STORM LAKE *   CLEAR     55  50  82 E7        29.95S
$$

IAZ055>058-069>071-079>083-090>094-210800-
   SOUTHWEST IOWA

CITY           SKY/WX    TMP DP  RH WIND       PRES   REMARKS
ATLANTIC *     MOCLDY    61  59  94 N6        29.91S
AUDUBON *      PTCLDY    61  55  82 CALM      29.94S
CLARINDA *     CLOUDY    66  63  88 N5        29.91S
COUNCIL BLFS * PTCLDY    66  55  68 E10G16    29.90S
CRESTON *      MOCLDY    68  61  77 NE9       29.93R
HARLAN  *      CLEAR     61  55  82 N5        29.95S
LAMONI         MOCLDY    71  66  84 NE7       29.90S
RED OAK *      CLOUDY    66  59  77 NE6       29.90R
SHENANDOAH *   CLOUDY    66  61  82 NE5       29.89S
$$

IAZ047>049-059>061-072>074-084-210800-
   CENTRAL IOWA

CITY           SKY/WX    TMP DP  RH WIND       PRES   REMARKS
AMES           CLEAR     65  60  84 N5        29.92F
ANKENY *       PTCLDY    66  59  77 N5        29.92S
BOONE *        CLOUDY    64  57  77 NE5       29.93F
CHARITON *     MOCLDY    70  64  83 NE5       29.89F
DES MOINES     PTCLDY    71  60  68 NE7       29.90S
GRINNELL*      PTCLDY    69  64  83 N5        29.92S
KNOXVILLE *    PTCLDY    70  63  78 NE5       29.88S
MARSHALLTOWN   CLEAR     68  62  81 N5        29.90F
NEWTON *       PTCLDY    68  63  83 NE10      29.90F
PELLA *        CLEAR     69  64  82 CALM      29.91S
PERRY *          N/A     64  60  88 N5        29.93F
$$

IAZ004>006-015-016-023>025-035-036-210800-
   NORTH CENTRAL IOWA

CITY           SKY/WX    TMP DP  RH WIND       PRES   REMARKS
ALGONA *       CLEAR     54  52  94 NE7       29.98R
CLARION *      CLEAR     57  55  94 NE9       29.96S
ESTHERVILLE    CLEAR     48  48 100 E6        29.97S
FORT DODGE *   CLEAR     57  53  86 E7        29.96R
MASON CITY     CLEAR     52  50  93 NE3       29.99R
FOREST CITY *    N/A     55  50  82 NE3       29.98S
IOWA FALLS *     N/A     64  59  82 CALM      29.96S
$$

IAZ007>011-017>019-026>030-037>042-050>054-066-210800-
   NORTHEAST IOWA

CITY           SKY/WX    TMP DP  RH WIND       PRES   REMARKS
CEDAR RAPIDS     N/A     71  71 100 S6        29.90S
CHARLES CITY * CLEAR     57  57 100 NE6       29.98S
CLINTON *      LGT RAIN N/A N/A N/A S12       29.92F
DECORAH *      CLOUDY    61  59  94 NW6       29.96F
DUBUQUE        CLOUDY    69  66  90 N3        29.93F
MONTICELLO *   CLOUDY    72  68  88 VRB5      29.91R
OELWEIN *      CLEAR     66  64  94 NE8       29.93F
WATERLOO       PTCLDY    64  61  90 N8        29.91F
$$

IAZ064-065-067-068-078-210800-
   EAST CENTRAL IOWA

CITY           SKY/WX    TMP DP  RH WIND       PRES   REMARKS
DAVENPORT      CLOUDY    70  62  76 S8G20     29.94F THUNDER
IOWA CITY      CLOUDY    71  67  87 SE6       29.92F
MUSCATINE *    HVY RAIN N/A N/A N/A MISG        N/A
QUAD CITIES    TSTM      70  65  84 SE14      29.97F
$$

IAZ062-063-075>077-085>089-095>099-210800-
   SOUTHEAST IOWA

CITY           SKY/WX    TMP DP  RH WIND       PRES   REMARKS
BURLINGTON     CLOUDY    72  67  84 NE23G29   29.95R
FAIRFIELD *    FOG       70  70 100 VRB6G14   29.95R VSB 3/4
FORT MADISON * CLOUDY    75  70  83 NE15      29.94R
KEOKUK *       PTCLDY    81  70  69 S7        29.90R HX  84
OSKALOOSA *    MOCLDY    72  71  95 E5        29.90R FOG
OTTUMWA        CLOUDY    75  74  96 NE7       29.88R THUNDER
WASHINGTON *   LGT RAIN  70  70 100 SW13G20   29.93F
$$

ABBREVIATIONS USED IN REMARKS
   TC - TEMPERATURES IN CELSIUS
  WCI - WIND CHILL INDEX
   HX - HEAT INDEX
  VSB - VISIBILITY
$$





USA.gov is the U.S. government's official web portal to all federal, state and local government web resources and services.